Regional Weather Roundup
Issued by NWS Newport/Morehead, NC

Current Version | Previous Version | Text Only | Print | Product List | Glossary On
Versions: 1 2 3 4 5 6 7 8 9 10 11 12 13 14 15 16 17 18 19 20 21 22 23 24 25 26 27 28 29 30 31 32 33 34 35 36 37 38 39 40 41 42 43 44 45 46 47 48 49 50
000 ASUS42 KMHX 240425 RWRMHX WEATHER ROUNDUP FOR EASTERN NORTH CAROLINA NATIONAL WEATHER SERVICE NEWPORT/MOREHEAD CITY NC 1200 AM EDT TUE OCT 24 2017 NOTE: "FAIR" INDICATES FEW OR NO CLOUDS BELOW 12,000 FEET WITH NO SIGNIFICANT WEATHER AND/OR OBSTRUCTIONS TO VISIBILITY NCZ015>017-031-032-045>047-102-103-240500- NORTH COAST CITY SKY/WX TMP DP RH WIND PRES REMARKS EDENTON CLOUDY 76 69 77 S20 29.87F ELIZABETH CITY CLOUDY 74 70 87 S17G31 29.89F KITTY HAWK CLOUDY 75 65 72 S13G23 29.91F MANTEO CLOUDY N/A N/A N/A S20G28 29.93F $$ NCZ045>047-081-094-103-104-240500- CENTRAL COAST CITY SKY/WX TMP DP RH WIND PRES REMARKS FRISCO CLOUDY 78 68 71 S30G43 29.96F $$ NCZ095-097-098-100-101-240500- SOUTHERN COAST CITY SKY/WX TMP DP RH WIND PRES REMARKS BEAUFORT CLOUDY 76 71 85 S17G24 29.92F CEDAR ISLAND NOT AVBL JACKSONVILLE TSTM 75 74 96 S15G26 29.89S PINEY ISLAND FLURRIES N/A N/A N/A S18G30 29.91F WILMINGTON HVY RAIN 75 73 93 S12G17 29.85F FOG $$ NCZ011>013-027>030-043-044-078>080-089-090>093-098-240500- COASTAL PLAIN CITY SKY/WX TMP DP RH WIND PRES REMARKS AHOSKIE HVY RAIN 71 69 95 SE12G17 29.83F CLINTON CLOUDY 70 68 93 SW9G18 29.88R ELIZABETHTOWN NOT AVBL GOLDSBORO CLOUDY 77 68 73 SW18G25 29.82R GREENVILLE LGT RAIN 73 70 88 S12G20 29.85F HAVELOCK TSTM 76 72 87 S18G31 29.89F KENANSVILLE LGT RAIN 73 70 88 S7G20 29.84R KINSTON LGT RAIN 74 70 87 SW15G26 29.84R NEW BERN LGT RAIN 74 72 93 S23G32 29.86F RICHLANDS LGT RAIN 73 72 96 S22 29.89R ROCKY MOUNT HVY RAIN 72 72 100 SW17G28 29.81S FOG WASHINGTON LGT RAIN 75 70 85 SE17G28 29.82F WHITEVILLE MOCLDY 68 64 86 CALM 29.87S $$ AMZ130-135-150-152-154-156-158-170-250-252-270-ANZ085-086-088-633-658-670-240500- MARINE OBSERVATIONS STATION/POSITION TIME TEMP WIND PRES WAVE SWELL AIR SEA DIR/SP/G HT/PER HT/PER (UTC) (F) (DEG/KT/KT) (MB) (FT/S) (FT/S) CHESAPEAKE LIGHT NOT AVBL 64 E VA BEACH 0350 74 69 170/ 21/ 27 1014.0 10/ 7 DUCK 0400 76 70 170/ 26/ 32 1012.0 2 E DUCK 0400 71 N/A 5/ 6 OREGON INLET 0400 75 72 160/ 16/ 22 1013.7 13E OREGON INLT 0348 73 N/A 8/ 6 2/11 HATTERAS CG 0400 73 74 170/ 23/ 32 1014.3 DIAMOND BUOY 0350 79 80 170/ 29/ 37 1013.8 10/ 7 CAPE LOOKOUT 0400 76 170/ 23/ 26 1013.1 BEAUFORT LAB 0400 76 74 180/ 20/ 24 1013.0 30 SE NEW RVR IN 0408 79 180/ 23/ 29 1012.7 30 SE NEW RVR IN NOT AVBL 27 SE WRIGHTSVLE 0408 78 76 170/ 19/ 27 1012.1 5 SE WRIGHTSVLE 0408 76 74 160/ 16/ 27 1011.0 225 S CAPE HAT 0350 78 80 150/ 17/ 19 1016.5 5/ 5 41 SE CHARLESTON 0400 76 80 220/ 29/ 39 1011.4 $$

USA.gov is the U.S. government's official web portal to all federal, state and local government web resources and services.